Preview of NWS' New Version of Forecast
This preview is not operational and should not be used for support decisions.

Regional Weather Roundup (RWR)

Issued by National Weather Service (NWS)

                            
000
ASUS45 KCYS 180710
RWRWY 

WYOMING REGIONAL WEATHER ROUNDUP
NATIONAL WEATHER SERVICE CHEYENNE WY
100 AM MDT THU APR 18 2019

NOTE:  "FAIR" INDICATES FEW OR NO CLOUDS BELOW 12,000 FEET
WITH NO SIGNIFICANT WEATHER AND/OR OBSTRUCTIONS TO VISIBILITY.

WYZ001-180800-
YELLOWSTONE NATIONAL PARK
  
CITY           SKY/WX    TMP DP  RH WIND       PRES   REMARKS
LK YELLOWSTONE NOT AVBL                                               
W YELLOWSTONE  NOT AVBL                                               

$$
WYZ002>013-054>058-071-098>099-180800-
NORTHERN WYOMING
  
CITY           SKY/WX    TMP DP  RH WIND       PRES   REMARKS
JACKSON        CLOUDY    41  30  65 SW12      30.24R                  
CODY           FAIR      37  23  56 CALM      30.16R                  
GREYBULL       FAIR      49  26  41 N20G28    30.09R                  
WORLAND        CLOUDY    41  35  79 S7        30.10R                  
SHERIDAN       CLOUDY    46  32  58 N14       30.09R                  
BUFFALO        CLOUDY    43  29  57 NW9       30.08R                  
GILLETTE       FAIR      36  33  89 W12       30.05R WCI  28          
HULETT         FAIR      37  32  81 SW7       30.03  WCI  32          
NEWCASTLE      FAIR      37  32  81 NW13G20   30.02  WCI  29          

$$
WYZ014>020-022>026-101>103-180800-
CENTRAL WYOMING
  
CITY           SKY/WX    TMP DP  RH WIND       PRES   REMARKS
BIG PINEY      FAIR      33  26  75 N9        30.22S WCI  25          
PINEDALE       FAIR      32  28  86 CALM      30.22                   
DUBOIS         FAIR      39  23  52 W28G44    30.12  WCI  28          
LANDER         FAIR      43  23  45 SW3       30.11R                  
RIVERTON       FAIR      41  25  53 NW10      30.10S                  
CASPER         CLOUDY    33  32  96 W6        30.11F WCI  28          
DOUGLAS        FAIR      37  34  89 NW8       30.10S WCI  31          

$$
WYZ021-027>030-104>119-180800-
SOUTHERN WYOMING
  
CITY           SKY/WX    TMP DP  RH WIND       PRES   REMARKS
EVANSTON       FAIR      35  28  75 SW8       30.31R WCI  29          
KEMMERER       FAIR      32  30  93 W16       30.26S WCI  21          
ROCK SPRINGS   FAIR      37  29  72 W23       30.22R WCI  26          
DIXON          CLOUDY    40  29  65 S7        30.25R                  
RAWLINS        FAIR      38  26  62 W15G22    30.16S WCI  29          
SARATOGA       FAIR      36  27  69 W13       30.18R WCI  27          
LARAMIE        MOCLDY    33  32  96 NW8       30.12R WCI  26          
CHEYENNE       FAIR      37  34  89 N12       30.10R WCI  29          
TORRINGTON     CLOUDY    43  36  76 NW9       30.06R                  
PINE BLUFFS    FAIR      34  34 100 W7        30.09R WCI  28          

$$